Time,TemperatureF,DewpointF,PressureIn,WindDirection,WindDirectionDegrees,WindSpeedMPH,WindSpeedGustMPH,Humidity,HourlyPrecipIn,Conditions,Clouds,dailyrainin,SoftwareType,DateUTC
2013-03-03 00:00:00,32.3,22.9,30.29,South,174,4.0,6.0,68,0.00,,,0.00,WeatherCatV1.02B3,2013-03-03 06:00:00,
2013-03-03 00:05:00,32.2,22.8,30.29,South,174,0.0,2.0,68,0.00,,,0.00,WeatherCatV1.02B3,2013-03-03 06:05:00,
2013-03-03 00:10:00,32.1,23.1,30.29,SE,141,1.0,6.0,69,0.00,,,0.00,WeatherCatV1.02B3,2013-03-03 06:10:00,
2013-03-03 00:15:00,32.2,23.2,30.30,SSE,167,1.0,5.0,69,0.00,,,0.00,WeatherCatV1.02B3,2013-03-03 06:15:00,
2013-03-03 00:20:00,32.1,23.1,30.29,SSW,192,0.0,3.0,69,0.00,,,0.00,WeatherCatV1.02B3,2013-03-03 06:20:00,
2013-03-03 00:25:00,32.0,23.0,30.29,South,180,0.0,4.0,69,0.00,,,0.00,WeatherCatV1.02B3,2013-03-03 06:25:00,
2013-03-03 00:30:00,32.0,23.3,30.29,South,176,0.0,4.0,70,0.00,,,0.00,WeatherCatV1.02B3,2013-03-03 06:30:00,
2013-03-03 00:35:00,32.0,23.3,30.29,SSE,147,0.0,6.0,70,0.00,,,0.00,WeatherCatV1.02B3,2013-03-03 06:35:00,
2013-03-03 00:40:00,31.9,23.2,30.29,South,178,0.0,6.0,70,0.00,,,0.00,WeatherCatV1.02B3,2013-03-03 06:40:00,
2013-03-03 00:45:00,31.8,23.1,30.29,South,176,0.0,5.0,70,0.00,,,0.00,WeatherCatV1.02B3,2013-03-03 06:45:00,
2013-03-03 00:50:00,31.7,23.4,30.29,South,173,0.0,5.0,71,0.00,,,0.00,WeatherCatV1.02B3,2013-03-03 06:50:00,
2013-03-03 00:55:00,31.7,23.4,30.29,South,172,0.0,6.0,71,0.00,,,0.00,WeatherCatV1.02B3,2013-03-03 06:55:00,
2013-03-03 01:00:00,31.7,23.4,30.29,SSE,148,1.0,2.0,71,0.00,,,0.00,WeatherCatV1.02B3,2013-03-03 07:00:00,
2013-03-03 01:05:00,31.6,23.6,30.29,SSE,148,0.0,2.0,72,0.00,,,0.00,WeatherCatV1.02B3,2013-03-03 07:05:00,
2013-03-03 01:10:00,31.5,23.5,30.29,SSE,163,0.0,5.0,72,0.00,,,0.00,WeatherCatV1.02B3,2013-03-03 07:10:00,
2013-03-03 01:15:00,31.4,23.8,30.29,South,174,2.0,6.0,73,0.00,,,0.00,WeatherCatV1.02B3,2013-03-03 07:15:00,
2013-03-03 01:20:00,31.4,23.8,30.28,South,175,0.0,0.0,73,0.00,,,0.00,WeatherCatV1.02B3,2013-03-03 07:20:00,
2013-03-03 01:25:00,31.2,23.6,30.28,South,175,0.0,0.0,73,0.00,,,0.00,WeatherCatV1.02B3,2013-03-03 07:25:00,
2013-03-03 01:30:00,31.3,23.7,30.28,South,179,0.0,4.0,73,0.00,,,0.00,WeatherCatV1.02B3,2013-03-03 07:30:00,
2013-03-03 01:35:00,31.4,23.8,30.28,South,174,4.0,7.0,73,0.00,,,0.00,WeatherCatV1.02B3,2013-03-03 07:35:00,
2013-03-03 01:40:00,31.4,23.4,30.28,South,173,0.0,0.0,72,0.00,,,0.00,WeatherCatV1.02B3,2013-03-03 07:40:00,
2013-03-03 01:45:00,31.4,23.8,30.27,SSE,165,0.0,2.0,73,0.00,,,0.00,WeatherCatV1.02B3,2013-03-03 07:45:00,
2013-03-03 01:50:00,31.3,23.7,30.27,SSE,157,2.0,4.0,73,0.00,,,0.00,WeatherCatV1.02B3,2013-03-03 07:50:00,
2013-03-03 01:55:00,31.3,23.7,30.27,South,170,0.0,2.0,73,0.00,,,0.00,WeatherCatV1.02B3,2013-03-03 07:55:00,
2013-03-03 02:00:00,31.2,23.6,30.27,SSE,168,0.0,4.0,73,0.00,,,0.00,WeatherCatV1.02B3,2013-03-03 08:00:00,
2013-03-03 02:05:00,31.3,23.3,30.27,SSE,152,0.0,5.0,72,0.00,,,0.00,WeatherCatV1.02B3,2013-03-03 08:05:00,
2013-03-03 02:10:00,31.2,22.9,30.27,South,173,0.0,1.0,71,0.00,,,0.00,WeatherCatV1.02B3,2013-03-03 08:10:00,
2013-03-03 02:15:00,31.1,23.1,30.27,South,173,2.0,8.0,72,0.00,,,0.00,WeatherCatV1.02B3,2013-03-03 08:15:00,
2013-03-03 02:20:00,31.1,23.1,30.26,SSE,155,0.0,4.0,72,0.00,,,0.00,WeatherCatV1.02B3,2013-03-03 08:20:00,
2013-03-03 02:25:00,31.1,23.1,30.26,ESE,111,0.0,2.0,72,0.00,,,0.00,WeatherCatV1.02B3,2013-03-03 08:25:00,
2013-03-03 02:30:00,31.0,23.4,30.26,SSE,153,1.0,5.0,73,0.00,,,0.00,WeatherCatV1.02B3,2013-03-03 08:30:00,
2013-03-03 02:35:00,30.9,23.3,30.26,SE,145,1.0,1.0,73,0.00,,,0.00,WeatherCatV1.02B3,2013-03-03 08:35:00,
2013-03-03 02:40:00,30.8,23.5,30.26,SSE,154,0.0,2.0,74,0.00,,,0.00,WeatherCatV1.02B3,2013-03-03 08:40:00,
2013-03-03 02:45:00,30.8,23.5,30.26,SSE,154,1.0,4.0,74,0.00,,,0.00,WeatherCatV1.02B3,2013-03-03 08:45:00,
2013-03-03 02:50:00,30.7,23.7,30.26,SE,146,0.0,6.0,75,0.00,,,0.00,WeatherCatV1.02B3,2013-03-03 08:50:00,
2013-03-03 02:55:00,30.7,23.7,30.26,South,178,1.0,6.0,75,0.00,,,0.00,WeatherCatV1.02B3,2013-03-03 08:55:00,
2013-03-03 03:00:00,30.7,23.7,30.26,SSE,168,2.0,9.0,75,0.00,,,0.00,WeatherCatV1.02B3,2013-03-03 09:00:00,
2013-03-03 03:05:00,30.7,23.7,30.26,SSE,151,0.0,5.0,75,0.00,,,0.00,WeatherCatV1.02B3,2013-03-03 09:05:00,
2013-03-03 03:10:00,30.7,23.4,30.26,South,169,0.0,6.0,74,0.00,,,0.00,WeatherCatV1.02B3,2013-03-03 09:10:00,
2013-03-03 03:15:00,30.8,23.5,30.26,SSE,162,0.0,2.0,74,0.00,,,0.00,WeatherCatV1.02B3,2013-03-03 09:15:00,
2013-03-03 03:20:00,30.7,23.4,30.26,South,173,0.0,2.0,74,0.00,,,0.00,WeatherCatV1.02B3,2013-03-03 09:20:00,
2013-03-03 03:25:00,30.6,23.3,30.26,South,180,0.0,5.0,74,0.00,,,0.00,WeatherCatV1.02B3,2013-03-03 09:25:00,
2013-03-03 03:30:00,30.6,23.6,30.26,South,171,1.0,6.0,75,0.00,,,0.00,WeatherCatV1.02B3,2013-03-03 09:30:00,
2013-03-03 03:35:00,30.6,23.6,30.26,South,169,0.0,1.0,75,0.00,,,0.00,WeatherCatV1.02B3,2013-03-03 09:35:00,
2013-03-03 03:40:00,30.5,23.5,30.26,South,171,0.0,4.0,75,0.00,,,0.00,WeatherCatV1.02B3,2013-03-03 09:40:00,
2013-03-03 03:45:00,30.4,23.4,30.26,SSW,195,0.0,1.0,75,0.00,,,0.00,WeatherCatV1.02B3,2013-03-03 09:45:00,
2013-03-03 03:50:00,30.3,23.7,30.26,South,169,0.0,1.0,76,0.00,,,0.00,WeatherCatV1.02B3,2013-03-03 09:50:00,
2013-03-03 03:55:00,30.2,23.6,30.26,SSE,153,0.0,2.0,76,0.00,,,0.00,WeatherCatV1.02B3,2013-03-03 09:55:00,
2013-03-03 04:00:00,30.2,23.6,30.26,South,174,1.0,2.0,76,0.00,,,0.00,WeatherCatV1.02B3,2013-03-03 10:00:00,
2013-03-03 04:05:00,30.2,23.6,30.26,South,174,4.0,5.0,76,0.00,,,0.00,WeatherCatV1.02B3,2013-03-03 10:05:00,
2013-03-03 04:10:00,30.1,23.5,30.26,South,174,0.0,0.0,76,0.00,,,0.00,WeatherCatV1.02B3,2013-03-03 10:10:00,
2013-03-03 04:15:00,30.1,23.8,30.27,South,174,0.0,1.0,77,0.00,,,0.00,WeatherCatV1.02B3,2013-03-03 10:15:00,
2013-03-03 04:20:00,30.0,23.7,30.27,South,174,0.0,1.0,77,0.00,,,0.00,WeatherCatV1.02B3,2013-03-03 10:20:00,
2013-03-03 04:25:00,30.0,23.7,30.27,SSE,163,0.0,1.0,77,0.00,,,0.00,WeatherCatV1.02B3,2013-03-03 10:25:00,
2013-03-03 04:30:00,29.9,23.6,30.27,SSE,160,0.0,0.0,77,0.00,,,0.00,WeatherCatV1.02B3,2013-03-03 10:30:00,
2013-03-03 04:35:00,29.9,23.6,30.28,SSE,160,0.0,1.0,77,0.00,,,0.00,WeatherCatV1.02B3,2013-03-03 10:35:00,
2013-03-03 04:40:00,29.8,23.5,30.28,SSE,160,0.0,4.0,77,0.00,,,0.00,WeatherCatV1.02B3,2013-03-03 10:40:00,
2013-03-03 04:45:00,29.8,23.5,30.28,SSE,166,0.0,0.0,77,0.00,,,0.00,WeatherCatV1.02B3,2013-03-03 10:45:00,
2013-03-03 04:50:00,29.8,23.5,30.28,SSE,166,0.0,0.0,77,0.00,,,0.00,WeatherCatV1.02B3,2013-03-03 10:50:00,
2013-03-03 04:55:00,29.7,23.4,30.28,SSE,166,0.0,0.0,77,0.00,,,0.00,WeatherCatV1.02B3,2013-03-03 10:55:00,
2013-03-03 05:00:00,29.4,23.4,30.28,SSE,166,0.0,0.0,78,0.00,,,0.00,WeatherCatV1.02B3,2013-03-03 11:00:00,
2013-03-03 05:05:00,29.1,23.4,30.28,SSE,166,0.0,0.0,79,0.00,,,0.00,WeatherCatV1.02B3,2013-03-03 11:05:00,
2013-03-03 05:10:00,28.8,23.1,30.28,SSE,166,0.0,0.0,79,0.00,,,0.00,WeatherCatV1.02B3,2013-03-03 11:10:00,
2013-03-03 05:15:00,28.4,23.0,30.29,SSE,166,0.0,0.0,80,0.00,,,0.00,WeatherCatV1.02B3,2013-03-03 11:15:00,
2013-03-03 05:20:00,28.1,22.7,30.29,SSE,166,0.0,0.0,80,0.00,,,0.00,WeatherCatV1.02B3,2013-03-03 11:20:00,
2013-03-03 05:25:00,27.9,22.8,30.29,SSE,166,0.0,0.0,81,0.00,,,0.00,WeatherCatV1.02B3,2013-03-03 11:25:00,
2013-03-03 05:30:00,27.6,22.5,30.29,SSE,166,0.0,0.0,81,0.00,,,0.00,WeatherCatV1.02B3,2013-03-03 11:30:00,
2013-03-03 05:35:00,27.4,22.4,30.29,SSE,166,0.0,0.0,81,0.00,,,0.00,WeatherCatV1.02B3,2013-03-03 11:35:00,
2013-03-03 05:40:00,27.2,22.4,30.29,SSE,166,0.0,0.0,82,0.00,,,0.00,WeatherCatV1.02B3,2013-03-03 11:40:00,
2013-03-03 05:45:00,27.1,22.6,30.29,SSE,166,0.0,0.0,83,0.00,,,0.00,WeatherCatV1.02B3,2013-03-03 11:45:00,
2013-03-03 05:50:00,26.9,22.4,30.29,SSE,166,0.0,0.0,83,0.00,,,0.00,WeatherCatV1.02B3,2013-03-03 11:50:00,
2013-03-03 05:55:00,26.7,22.2,30.29,SSE,166,0.0,0.0,83,0.00,,,0.00,WeatherCatV1.02B3,2013-03-03 11:55:00,
2013-03-03 06:00:00,26.6,22.1,30.29,SSE,166,0.0,0.0,83,0.00,,,0.00,WeatherCatV1.02B3,2013-03-03 12:00:00,
2013-03-03 06:05:00,26.4,22.2,30.30,SSE,166,0.0,0.0,84,0.00,,,0.00,WeatherCatV1.02B3,2013-03-03 12:05:00,
2013-03-03 06:10:00,26.3,22.4,30.30,SSE,166,0.0,0.0,85,0.00,,,0.00,WeatherCatV1.02B3,2013-03-03 12:10:00,
2013-03-03 06:15:00,26.2,22.3,30.30,SSE,166,0.0,0.0,85,0.00,,,0.00,WeatherCatV1.02B3,2013-03-03 12:15:00,
2013-03-03 06:20:00,26.1,22.2,30.30,SSE,166,0.0,0.0,85,0.00,,,0.00,WeatherCatV1.02B3,2013-03-03 12:20:00,
2013-03-03 06:25:00,26.0,22.1,30.31,SSE,166,0.0,0.0,85,0.00,,,0.00,WeatherCatV1.02B3,2013-03-03 12:25:00,
2013-03-03 06:30:00,26.0,22.4,30.31,SSE,166,0.0,0.0,86,0.00,,,0.00,WeatherCatV1.02B3,2013-03-03 12:30:00,
2013-03-03 06:35:00,25.9,22.3,30.31,SSE,166,0.0,0.0,86,0.00,,,0.00,WeatherCatV1.02B3,2013-03-03 12:35:00,
2013-03-03 06:40:00,25.8,22.2,30.31,SSE,166,0.0,0.0,86,0.00,,,0.00,WeatherCatV1.02B3,2013-03-03 12:40:00,
2013-03-03 06:45:00,25.8,22.2,30.31,SSE,166,0.0,0.0,86,0.00,,,0.00,WeatherCatV1.02B3,2013-03-03 12:45:00,
2013-03-03 06:50:00,25.7,22.1,30.31,SSE,166,0.0,0.0,86,0.00,,,0.00,WeatherCatV1.02B3,2013-03-03 12:50:00,
2013-03-03 06:55:00,25.6,22.0,30.31,SSE,166,0.0,0.0,86,0.00,,,0.00,WeatherCatV1.02B3,2013-03-03 12:55:00,
2013-03-03 07:00:00,25.6,22.3,30.31,SSE,166,0.0,0.0,87,0.00,,,0.00,WeatherCatV1.02B3,2013-03-03 13:00:00,
2013-03-03 07:05:00,25.6,22.3,30.31,SSE,166,0.0,0.0,87,0.00,,,0.00,WeatherCatV1.02B3,2013-03-03 13:05:00,
2013-03-03 07:10:00,25.6,22.3,30.31,SSE,166,0.0,0.0,87,0.00,,,0.00,WeatherCatV1.02B3,2013-03-03 13:10:00,
2013-03-03 07:15:00,25.5,22.2,30.31,SSE,166,0.0,0.0,87,0.00,,,0.00,WeatherCatV1.02B3,2013-03-03 13:15:00,
2013-03-03 07:20:00,25.7,22.6,30.31,SSE,166,0.0,0.0,88,0.00,,,0.00,WeatherCatV1.02B3,2013-03-03 13:20:00,
2013-03-03 07:25:00,25.7,22.6,30.32,SSE,166,0.0,0.0,88,0.00,,,0.00,WeatherCatV1.02B3,2013-03-03 13:25:00,
2013-03-03 07:30:00,25.8,22.7,30.32,SSE,166,0.0,0.0,88,0.00,,,0.00,WeatherCatV1.02B3,2013-03-03 13:30:00,
2013-03-03 07:35:00,26.1,23.0,30.31,SSE,166,0.0,0.0,88,0.00,,,0.00,WeatherCatV1.02B3,2013-03-03 13:35:00,
2013-03-03 07:40:00,26.4,23.3,30.31,SSE,166,0.0,0.0,88,0.00,,,0.00,WeatherCatV1.02B3,2013-03-03 13:40:00,
2013-03-03 07:45:00,27.1,24.3,30.31,SSE,166,0.0,0.0,89,0.00,,,0.00,WeatherCatV1.02B3,2013-03-03 13:45:00,
2013-03-03 07:50:00,27.8,24.7,30.31,SSE,166,0.0,1.0,88,0.00,,,0.00,WeatherCatV1.02B3,2013-03-03 13:50:00,
2013-03-03 07:55:00,28.4,25.0,30.32,SSE,166,0.0,0.0,87,0.00,,,0.00,WeatherCatV1.02B3,2013-03-03 13:55:00,
2013-03-03 08:00:00,29.1,25.4,30.32,SSE,166,0.0,1.0,86,0.00,,,0.00,WeatherCatV1.02B3,2013-03-03 14:00:00,
2013-03-03 08:05:00,29.7,25.2,30.32,SSE,166,0.0,0.0,83,0.00,,,0.00,WeatherCatV1.02B3,2013-03-03 14:05:00,
2013-03-03 08:10:00,30.3,25.2,30.32,SSE,166,0.0,0.0,81,0.00,,,0.00,WeatherCatV1.02B3,2013-03-03 14:10:00,
2013-03-03 08:15:00,31.0,24.7,30.32,West,262,0.0,4.0,77,0.00,,,0.00,WeatherCatV1.02B3,2013-03-03 14:15:00,
2013-03-03 08:20:00,31.7,24.1,30.32,SW,232,0.0,2.0,73,0.00,,,0.00,WeatherCatV1.02B3,2013-03-03 14:20:00,
2013-03-03 08:25:00,32.3,24.3,30.32,SW,230,0.0,2.0,72,0.00,,,0.00,WeatherCatV1.02B3,2013-03-03 14:25:00,
2013-03-03 08:30:00,32.6,23.2,30.32,SW,230,0.0,0.0,68,0.00,,,0.00,WeatherCatV1.02B3,2013-03-03 14:30:00,
2013-03-03 08:35:00,33.2,23.8,30.32,South,185,1.0,3.0,68,0.00,,,0.00,WeatherCatV1.02B3,2013-03-03 14:35:00,
2013-03-03 08:40:00,33.6,23.5,30.32,WSW,255,0.0,0.0,66,0.00,,,0.00,WeatherCatV1.02B3,2013-03-03 14:40:00,
2013-03-03 08:45:00,33.9,23.4,30.32,WSW,257,1.0,2.0,65,0.00,,,0.00,WeatherCatV1.02B3,2013-03-03 14:45:00,
2013-03-03 08:50:00,34.2,22.9,30.32,WSW,257,0.0,0.0,63,0.00,,,0.00,WeatherCatV1.02B3,2013-03-03 14:50:00,
2013-03-03 08:55:00,34.3,22.7,30.32,South,176,0.0,7.0,62,0.00,,,0.00,WeatherCatV1.02B3,2013-03-03 14:55:00,
2013-03-03 09:00:00,34.4,22.7,30.32,South,178,0.0,5.0,62,0.00,,,0.00,WeatherCatV1.02B3,2013-03-03 15:00:00,
2013-03-03 09:05:00,34.7,22.6,30.32,South,178,0.0,2.0,61,0.00,,,0.00,WeatherCatV1.02B3,2013-03-03 15:05:00,
2013-03-03 09:10:00,35.0,22.9,30.32,South,178,0.0,4.0,61,0.00,,,0.00,WeatherCatV1.02B3,2013-03-03 15:10:00,
2013-03-03 09:15:00,35.1,22.6,30.31,South,178,0.0,0.0,60,0.00,,,0.00,WeatherCatV1.02B3,2013-03-03 15:15:00,
2013-03-03 09:20:00,35.4,22.9,30.31,SSW,208,0.0,0.0,60,0.00,,,0.00,WeatherCatV1.02B3,2013-03-03 15:20:00,
2013-03-03 09:25:00,35.8,23.3,30.32,SSW,211,0.0,1.0,60,0.00,,,0.00,WeatherCatV1.02B3,2013-03-03 15:25:00,
2013-03-03 09:30:00,36.0,23.1,30.32,SSE,167,0.0,2.0,59,0.00,,,0.00,WeatherCatV1.02B3,2013-03-03 15:30:00,
2013-03-03 09:35:00,36.3,23.4,30.32,SSW,209,2.0,2.0,59,0.00,,,0.00,WeatherCatV1.02B3,2013-03-03 15:35:00,
2013-03-03 09:40:00,36.5,23.1,30.32,ENE,66,0.0,2.0,58,0.00,,,0.00,WeatherCatV1.02B3,2013-03-03 15:40:00,
2013-03-03 09:45:00,36.5,22.7,30.32,ENE,74,2.0,4.0,57,0.00,,,0.00,WeatherCatV1.02B3,2013-03-03 15:45:00,
2013-03-03 09:50:00,36.7,22.9,30.32,ENE,70,1.0,3.0,57,0.00,,,0.00,WeatherCatV1.02B3,2013-03-03 15:50:00,
2013-03-03 09:55:00,37.0,22.8,30.32,East,84,0.0,1.0,56,0.00,,,0.00,WeatherCatV1.02B3,2013-03-03 15:55:00,
2013-03-03 10:00:00,36.9,22.3,30.32,East,83,0.0,5.0,55,0.00,,,0.00,WeatherCatV1.02B3,2013-03-03 16:00:00,
2013-03-03 10:05:00,37.3,22.6,30.32,SSE,150,0.0,5.0,55,0.00,,,0.00,WeatherCatV1.02B3,2013-03-03 16:05:00,
2013-03-03 10:10:00,37.9,21.9,30.32,NE,56,1.0,4.0,52,0.00,,,0.00,WeatherCatV1.02B3,2013-03-03 16:10:00,
2013-03-03 10:15:00,37.7,22.1,30.32,SSW,209,1.0,5.0,53,0.00,,,0.00,WeatherCatV1.02B3,2013-03-03 16:15:00,
2013-03-03 10:20:00,38.0,22.0,30.31,East,94,0.0,2.0,52,0.00,,,0.00,WeatherCatV1.02B3,2013-03-03 16:20:00,
2013-03-03 10:25:00,38.2,22.1,30.31,ESE,118,0.0,2.0,52,0.00,,,0.00,WeatherCatV1.02B3,2013-03-03 16:25:00,
2013-03-03 10:30:00,38.7,23.5,30.31,SW,221,1.0,1.0,54,0.00,,,0.00,WeatherCatV1.02B3,2013-03-03 16:30:00,
2013-03-03 10:35:00,38.8,23.2,30.31,South,183,0.0,6.0,53,0.00,,,0.00,WeatherCatV1.02B3,2013-03-03 16:35:00,
2013-03-03 10:40:00,39.5,23.3,30.31,WSW,244,1.0,7.0,52,0.00,,,0.00,WeatherCatV1.02B3,2013-03-03 16:40:00,
2013-03-03 10:45:00,39.7,24.4,30.30,South,188,4.0,4.0,54,0.00,,,0.00,WeatherCatV1.02B3,2013-03-03 16:45:00,
2013-03-03 10:50:00,40.4,24.2,30.30,South,182,0.0,1.0,52,0.00,,,0.00,WeatherCatV1.02B3,2013-03-03 16:50:00,
2013-03-03 10:55:00,40.7,24.0,30.30,West,261,0.0,5.0,51,0.00,,,0.00,WeatherCatV1.02B3,2013-03-03 16:55:00,
2013-03-03 11:00:00,41.1,24.4,30.30,South,179,4.0,5.0,51,0.00,,,0.00,WeatherCatV1.02B3,2013-03-03 17:00:00,
2013-03-03 11:05:00,41.4,24.2,30.30,SSE,168,2.0,7.0,50,0.00,,,0.00,WeatherCatV1.02B3,2013-03-03 17:05:00,
2013-03-03 11:10:00,42.0,22.7,30.30,East,89,0.0,6.0,46,0.00,,,0.00,WeatherCatV1.02B3,2013-03-03 17:10:00,
2013-03-03 11:15:00,41.9,22.6,30.30,SE,134,1.0,9.0,46,0.00,,,0.00,WeatherCatV1.02B3,2013-03-03 17:15:00,
2013-03-03 11:20:00,42.2,23.9,30.30,SSE,167,4.0,4.0,48,0.00,,,0.00,WeatherCatV1.02B3,2013-03-03 17:20:00,
2013-03-03 11:25:00,42.1,21.8,30.29,SSE,159,1.0,2.0,44,0.00,,,0.00,WeatherCatV1.02B3,2013-03-03 17:25:00,
2013-03-03 11:30:00,41.9,22.6,30.29,SSE,152,0.0,4.0,46,0.00,,,0.00,WeatherCatV1.02B3,2013-03-03 17:30:00,
2013-03-03 11:35:00,42.5,24.2,30.29,South,187,2.0,5.0,48,0.00,,,0.00,WeatherCatV1.02B3,2013-03-03 17:35:00,
2013-03-03 11:40:00,43.5,23.6,30.29,SSE,165,0.0,1.0,45,0.00,,,0.00,WeatherCatV1.02B3,2013-03-03 17:40:00,
2013-03-03 11:45:00,43.2,23.3,30.28,SSE,164,4.0,5.0,45,0.00,,,0.00,WeatherCatV1.02B3,2013-03-03 17:45:00,
2013-03-03 11:50:00,44.0,26.1,30.28,SW,230,1.0,4.0,49,0.00,,,0.00,WeatherCatV1.02B3,2013-03-03 17:50:00,
2013-03-03 11:55:00,44.9,26.4,30.28,SSE,157,0.0,4.0,48,0.00,,,0.00,WeatherCatV1.02B3,2013-03-03 17:55:00,
2013-03-03 12:00:00,45.4,24.8,30.28,South,190,5.0,5.0,44,0.00,,,0.00,WeatherCatV1.02B3,2013-03-03 18:00:00,
2013-03-03 12:05:00,45.9,24.7,30.28,SSE,165,4.0,4.0,43,0.00,,,0.00,WeatherCatV1.02B3,2013-03-03 18:05:00,
2013-03-03 12:10:00,45.3,24.1,30.27,South,170,0.0,6.0,43,0.00,,,0.00,WeatherCatV1.02B3,2013-03-03 18:10:00,
2013-03-03 12:15:00,45.3,23.6,30.27,ESE,102,1.0,2.0,42,0.00,,,0.00,WeatherCatV1.02B3,2013-03-03 18:15:00,
2013-03-03 12:20:00,45.6,23.8,30.27,SSE,152,4.0,8.0,42,0.00,,,0.00,WeatherCatV1.02B3,2013-03-03 18:20:00,
2013-03-03 12:25:00,45.8,23.5,30.26,SE,145,7.0,7.0,41,0.00,,,0.00,WeatherCatV1.02B3,2013-03-03 18:25:00,
2013-03-03 12:30:00,45.6,24.4,30.26,East,90,4.0,5.0,43,0.00,,,0.00,WeatherCatV1.02B3,2013-03-03 18:30:00,
2013-03-03 12:35:00,45.1,22.8,30.26,SW,235,1.0,4.0,41,0.00,,,0.00,WeatherCatV1.02B3,2013-03-03 18:35:00,
2013-03-03 12:40:00,45.8,23.5,30.25,SSE,163,1.0,9.0,41,0.00,,,0.00,WeatherCatV1.02B3,2013-03-03 18:40:00,
2013-03-03 12:45:00,46.3,23.9,30.25,SSE,168,6.0,8.0,41,0.00,,,0.00,WeatherCatV1.02B3,2013-03-03 18:45:00,
2013-03-03 12:50:00,46.1,23.7,30.24,SSE,150,6.0,6.0,41,0.00,,,0.00,WeatherCatV1.02B3,2013-03-03 18:50:00,
2013-03-03 12:55:00,46.5,24.1,30.24,SSE,147,2.0,6.0,41,0.00,,,0.00,WeatherCatV1.02B3,2013-03-03 18:55:00,
2013-03-03 13:00:00,47.1,24.0,30.24,SSE,163,0.0,4.0,40,0.00,,,0.00,WeatherCatV1.02B3,2013-03-03 19:00:00,
2013-03-03 13:06:00,46.6,22.4,30.24,ESE,104,2.0,4.0,38,0.00,,,0.00,WeatherCatV1.02B3,2013-03-03 19:06:00,
2013-03-03 13:11:00,46.8,24.9,30.24,SSE,155,0.0,7.0,42,0.00,,,0.00,WeatherCatV1.02B3,2013-03-03 19:11:00,
2013-03-03 13:16:00,46.6,23.6,30.23,SSE,148,4.0,8.0,40,0.00,,,0.00,WeatherCatV1.02B3,2013-03-03 19:16:00,
2013-03-03 13:21:00,48.3,25.7,30.23,South,173,0.0,2.0,41,0.00,,,0.00,WeatherCatV1.02B3,2013-03-03 19:21:00,
2013-03-03 13:26:00,48.5,25.3,30.23,SSW,199,0.0,3.0,40,0.00,,,0.00,WeatherCatV1.02B3,2013-03-03 19:26:00,
2013-03-03 13:31:00,49.4,24.2,30.23,SSW,205,5.0,5.0,37,0.00,,,0.00,WeatherCatV1.02B3,2013-03-03 19:31:00,
2013-03-03 13:36:00,49.0,23.2,30.22,SE,141,0.0,5.0,36,0.00,,,0.00,WeatherCatV1.02B3,2013-03-03 19:36:00,
2013-03-03 13:41:00,48.1,24.3,30.22,NE,55,0.0,1.0,39,0.00,,,0.00,WeatherCatV1.02B3,2013-03-03 19:41:00,
2013-03-03 13:46:00,49.2,25.3,30.22,ENE,74,1.0,3.0,39,0.00,,,0.00,WeatherCatV1.02B3,2013-03-03 19:46:00,
2013-03-03 13:51:00,49.4,24.2,30.22,SSE,150,0.0,6.0,37,0.00,,,0.00,WeatherCatV1.02B3,2013-03-03 19:51:00,
2013-03-03 13:56:00,49.9,24.7,30.22,SE,146,2.0,7.0,37,0.00,,,0.00,WeatherCatV1.02B3,2013-03-03 19:56:00,
2013-03-03 14:01:00,49.8,24.6,30.22,SE,128,2.0,5.0,37,0.00,,,0.00,WeatherCatV1.02B3,2013-03-03 20:01:00,
2013-03-03 14:06:00,49.3,26.0,30.22,South,184,4.0,6.0,40,0.00,,,0.00,WeatherCatV1.02B3,2013-03-03 20:06:00,
2013-03-03 14:11:00,50.0,25.4,30.21,SSE,161,4.0,7.0,38,0.00,,,0.00,WeatherCatV1.02B3,2013-03-03 20:11:00,
2013-03-03 14:16:00,50.2,25.6,30.21,SSE,149,6.0,8.0,38,0.00,,,0.00,WeatherCatV1.02B3,2013-03-03 20:16:00,
2013-03-03 14:21:00,50.0,23.4,30.21,SSW,202,0.0,4.0,35,0.00,,,0.00,WeatherCatV1.02B3,2013-03-03 20:21:00,
2013-03-03 14:26:00,50.2,22.9,30.22,ENE,68,0.0,4.0,34,0.00,,,0.00,WeatherCatV1.02B3,2013-03-03 20:26:00,
2013-03-03 14:31:00,50.6,25.9,30.21,South,178,1.0,6.0,38,0.00,,,0.00,WeatherCatV1.02B3,2013-03-03 20:31:00,
2013-03-03 14:36:00,50.2,22.9,30.21,West,259,3.0,3.0,34,0.00,,,0.00,WeatherCatV1.02B3,2013-03-03 20:36:00,
2013-03-03 14:41:00,50.4,24.5,30.20,South,175,4.0,9.0,36,0.00,,,0.00,WeatherCatV1.02B3,2013-03-03 20:41:00,
2013-03-03 14:46:00,50.6,24.6,30.20,SSW,201,2.0,3.0,36,0.00,,,0.00,WeatherCatV1.02B3,2013-03-03 20:46:00,
2013-03-03 14:51:00,51.0,22.9,30.20,SSE,152,0.0,6.0,33,0.00,,,0.00,WeatherCatV1.02B3,2013-03-03 20:51:00,
2013-03-03 14:56:00,50.7,22.7,30.20,SSE,168,0.0,7.0,33,0.00,,,0.00,WeatherCatV1.02B3,2013-03-03 20:56:00,
2013-03-03 15:01:00,50.9,25.6,30.19,SSW,193,3.0,3.0,37,0.00,,,0.00,WeatherCatV1.02B3,2013-03-03 21:01:00,
2013-03-03 15:06:00,50.9,23.5,30.19,East,98,1.0,1.0,34,0.00,,,0.00,WeatherCatV1.02B3,2013-03-03 21:06:00,
2013-03-03 15:11:00,50.9,24.2,30.19,SSE,148,0.0,5.0,35,0.00,,,0.00,WeatherCatV1.02B3,2013-03-03 21:11:00,
2013-03-03 15:16:00,50.6,25.3,30.19,SSE,161,0.0,2.0,37,0.00,,,0.00,WeatherCatV1.02B3,2013-03-03 21:16:00,
2013-03-03 15:21:00,51.1,25.1,30.19,WSW,242,2.0,4.0,36,0.00,,,0.00,WeatherCatV1.02B3,2013-03-03 21:21:00,
2013-03-03 15:26:00,51.9,26.5,30.18,SW,229,1.0,2.0,37,0.00,,,0.00,WeatherCatV1.02B3,2013-03-03 21:26:00,
2013-03-03 15:31:00,52.2,25.4,30.18,South,170,1.0,4.0,35,0.00,,,0.00,WeatherCatV1.02B3,2013-03-03 21:31:00,
2013-03-03 15:36:00,52.1,23.9,30.18,South,172,0.0,0.0,33,0.00,,,0.00,WeatherCatV1.02B3,2013-03-03 21:36:00,
2013-03-03 15:41:00,52.4,24.9,30.17,South,177,4.0,6.0,34,0.00,,,0.00,WeatherCatV1.02B3,2013-03-03 21:41:00,
2013-03-03 15:46:00,52.3,25.5,30.17,South,177,0.0,0.0,35,0.00,,,0.00,WeatherCatV1.02B3,2013-03-03 21:46:00,
2013-03-03 15:51:00,52.2,24.7,30.17,South,174,0.0,1.0,34,0.00,,,0.00,WeatherCatV1.02B3,2013-03-03 21:51:00,
2013-03-03 15:56:00,52.8,25.9,30.17,South,174,0.0,1.0,35,0.00,,,0.00,WeatherCatV1.02B3,2013-03-03 21:56:00,
2013-03-03 16:01:00,52.3,23.3,30.18,East,84,2.0,3.0,32,0.00,,,0.00,WeatherCatV1.02B3,2013-03-03 22:01:00,
2013-03-03 16:06:00,51.9,23.0,30.18,ENE,74,1.0,1.0,32,0.00,,,0.00,WeatherCatV1.02B3,2013-03-03 22:06:00,
2013-03-03 16:11:00,52.0,25.2,30.18,ENE,74,0.0,0.0,35,0.00,,,0.00,WeatherCatV1.02B3,2013-03-03 22:11:00,
2013-03-03 16:16:00,51.4,24.0,30.18,ENE,76,0.0,0.0,34,0.00,,,0.00,WeatherCatV1.02B3,2013-03-03 22:16:00,
2013-03-03 16:21:00,51.4,24.7,30.18,ENE,76,0.0,1.0,35,0.00,,,0.00,WeatherCatV1.02B3,2013-03-03 22:21:00,
2013-03-03 16:26:00,51.3,24.6,30.18,ENE,76,0.0,0.0,35,0.00,,,0.00,WeatherCatV1.02B3,2013-03-03 22:26:00,
2013-03-03 16:31:00,51.3,24.6,30.17,SE,142,0.0,2.0,35,0.00,,,0.00,WeatherCatV1.02B3,2013-03-03 22:31:00,
2013-03-03 16:36:00,50.9,24.9,30.17,SE,142,0.0,1.0,36,0.00,,,0.00,WeatherCatV1.02B3,2013-03-03 22:36:00,
2013-03-03 16:41:00,50.9,24.2,30.17,SSE,157,1.0,2.0,35,0.00,,,0.00,WeatherCatV1.02B3,2013-03-03 22:41:00,
2013-03-03 16:46:00,51.1,25.7,30.17,SSE,157,0.0,0.0,37,0.00,,,0.00,WeatherCatV1.02B3,2013-03-03 22:46:00,
2013-03-03 16:51:00,50.9,24.2,30.17,SSE,157,0.0,0.0,35,0.00,,,0.00,WeatherCatV1.02B3,2013-03-03 22:51:00,
2013-03-03 16:56:00,50.7,24.7,30.17,SSE,157,0.0,1.0,36,0.00,,,0.00,WeatherCatV1.02B3,2013-03-03 22:56:00,
2013-03-03 17:01:00,50.5,23.9,30.17,SSE,157,0.0,1.0,35,0.00,,,0.00,WeatherCatV1.02B3,2013-03-03 23:01:00,
2013-03-03 17:06:00,50.2,23.6,30.17,SSE,157,0.0,1.0,35,0.00,,,0.00,WeatherCatV1.02B3,2013-03-03 23:06:00,
2013-03-03 17:11:00,50.1,25.5,30.17,SSE,157,0.0,1.0,38,0.00,,,0.00,WeatherCatV1.02B3,2013-03-03 23:11:00,
2013-03-03 17:16:00,50.0,26.0,30.17,SSE,157,0.0,0.0,39,0.00,,,0.00,WeatherCatV1.02B3,2013-03-03 23:16:00,
2013-03-03 17:21:00,49.9,25.9,30.17,SSE,157,0.0,2.0,39,0.00,,,0.00,WeatherCatV1.02B3,2013-03-03 23:21:00,
2013-03-03 17:26:00,49.8,25.9,30.17,SSE,157,0.0,0.0,39,0.00,,,0.00,WeatherCatV1.02B3,2013-03-03 23:26:00,
2013-03-03 17:31:00,49.5,26.2,30.17,SSE,157,0.0,1.0,40,0.00,,,0.00,WeatherCatV1.02B3,2013-03-03 23:31:00,
2013-03-03 17:36:00,49.3,27.2,30.17,SSE,157,0.0,0.0,42,0.00,,,0.00,WeatherCatV1.02B3,2013-03-03 23:36:00,
2013-03-03 17:41:00,49.1,27.6,30.17,ESE,109,0.0,0.0,43,0.00,,,0.00,WeatherCatV1.02B3,2013-03-03 23:41:00,
2013-03-03 17:46:00,48.8,27.3,30.17,ESE,109,0.0,0.0,43,0.00,,,0.00,WeatherCatV1.02B3,2013-03-03 23:46:00,
2013-03-03 17:51:00,48.5,28.1,30.17,ESE,109,0.0,0.0,45,0.00,,,0.00,WeatherCatV1.02B3,2013-03-03 23:51:00,
2013-03-03 17:56:00,48.0,28.2,30.17,ESE,109,0.0,0.0,46,0.00,,,0.00,WeatherCatV1.02B3,2013-03-03 23:56:00,
2013-03-03 18:01:00,47.6,27.9,30.17,ESE,109,0.0,0.0,46,0.00,,,0.00,WeatherCatV1.02B3,2013-03-04 00:01:00,
2013-03-03 18:06:00,47.2,28.0,30.17,ESE,109,0.0,0.0,47,0.00,,,0.00,WeatherCatV1.02B3,2013-03-04 00:06:00,
2013-03-03 18:11:00,46.8,29.2,30.17,ESE,109,0.0,0.0,50,0.00,,,0.00,WeatherCatV1.02B3,2013-03-04 00:11:00,
2013-03-03 18:16:00,46.4,28.3,30.17,ESE,109,0.0,0.0,49,0.00,,,0.00,WeatherCatV1.02B3,2013-03-04 00:16:00,
2013-03-03 18:21:00,45.9,28.3,30.17,ESE,109,0.0,0.0,50,0.00,,,0.00,WeatherCatV1.02B3,2013-03-04 00:21:00,
2013-03-03 18:26:00,45.4,28.3,30.17,ESE,109,0.0,0.0,51,0.00,,,0.00,WeatherCatV1.02B3,2013-03-04 00:26:00,
2013-03-03 18:31:00,45.0,28.4,30.17,ESE,109,0.0,0.0,52,0.00,,,0.00,WeatherCatV1.02B3,2013-03-04 00:31:00,
2013-03-03 18:36:00,44.7,27.7,30.17,ESE,109,0.0,0.0,51,0.00,,,0.00,WeatherCatV1.02B3,2013-03-04 00:36:00,
2013-03-03 18:41:00,44.4,27.4,30.17,ESE,109,0.0,0.0,51,0.00,,,0.00,WeatherCatV1.02B3,2013-03-04 00:41:00,
2013-03-03 18:46:00,44.1,27.6,30.17,ESE,109,0.0,0.0,52,0.00,,,0.00,WeatherCatV1.02B3,2013-03-04 00:46:00,
2013-03-03 18:51:00,43.8,27.3,30.17,ESE,109,0.0,0.0,52,0.00,,,0.00,WeatherCatV1.02B3,2013-03-04 00:51:00,
2013-03-03 18:56:00,43.5,28.0,30.17,ESE,109,0.0,0.0,54,0.00,,,0.00,WeatherCatV1.02B3,2013-03-04 00:56:00,
2013-03-03 19:01:00,43.2,28.1,30.17,ESE,109,0.0,0.0,55,0.00,,,0.00,WeatherCatV1.02B3,2013-03-04 01:01:00,
2013-03-03 19:06:00,42.9,27.9,30.17,ESE,109,0.0,0.0,55,0.00,,,0.00,WeatherCatV1.02B3,2013-03-04 01:06:00,
2013-03-03 19:11:00,42.6,28.0,30.17,ESE,109,0.0,0.0,56,0.00,,,0.00,WeatherCatV1.02B3,2013-03-04 01:11:00,
2013-03-03 19:16:00,42.4,28.3,30.17,ESE,109,0.0,0.0,57,0.00,,,0.00,WeatherCatV1.02B3,2013-03-04 01:16:00,
2013-03-03 19:21:00,42.2,28.5,30.17,ESE,109,0.0,0.0,58,0.00,,,0.00,WeatherCatV1.02B3,2013-03-04 01:21:00,
2013-03-03 19:26:00,41.9,28.6,30.17,ESE,109,0.0,0.0,59,0.00,,,0.00,WeatherCatV1.02B3,2013-03-04 01:26:00,
2013-03-03 19:31:00,41.6,28.8,30.17,ESE,109,0.0,0.0,60,0.00,,,0.00,WeatherCatV1.02B3,2013-03-04 01:31:00,
2013-03-03 19:36:00,41.4,29.0,30.17,ESE,109,0.0,0.0,61,0.00,,,0.00,WeatherCatV1.02B3,2013-03-04 01:36:00,
2013-03-03 19:41:00,41.1,29.1,30.17,ESE,109,0.0,0.0,62,0.00,,,0.00,WeatherCatV1.02B3,2013-03-04 01:41:00,
2013-03-03 19:46:00,40.9,28.9,30.17,ESE,109,0.0,0.0,62,0.00,,,0.00,WeatherCatV1.02B3,2013-03-04 01:46:00,
2013-03-03 19:51:00,40.7,29.1,30.17,ESE,109,0.0,0.0,63,0.00,,,0.00,WeatherCatV1.02B3,2013-03-04 01:51:00,
2013-03-03 19:56:00,40.5,29.3,30.17,ESE,109,0.0,0.0,64,0.00,,,0.00,WeatherCatV1.02B3,2013-03-04 01:56:00,
2013-03-03 20:01:00,40.4,29.6,30.17,ESE,109,0.0,0.0,65,0.00,,,0.00,WeatherCatV1.02B3,2013-03-04 02:01:00,
2013-03-03 20:06:00,40.2,29.0,30.17,ESE,109,0.0,0.0,64,0.00,,,0.00,WeatherCatV1.02B3,2013-03-04 02:06:00,
2013-03-03 20:11:00,40.2,29.4,30.16,ESE,109,0.0,0.0,65,0.00,,,0.00,WeatherCatV1.02B3,2013-03-04 02:11:00,
2013-03-03 20:16:00,40.1,29.3,30.16,ESE,109,0.0,0.0,65,0.00,,,0.00,WeatherCatV1.02B3,2013-03-04 02:16:00,
2013-03-03 20:21:00,39.9,29.1,30.16,ESE,109,0.0,0.0,65,0.00,,,0.00,WeatherCatV1.02B3,2013-03-04 02:21:00,
2013-03-03 20:26:00,39.8,29.4,30.16,ESE,109,0.0,0.0,66,0.00,,,0.00,WeatherCatV1.02B3,2013-03-04 02:26:00,
2013-03-03 20:31:00,39.7,29.7,30.17,ESE,109,0.0,0.0,67,0.00,,,0.00,WeatherCatV1.02B3,2013-03-04 02:31:00,
2013-03-03 20:36:00,39.5,29.5,30.17,ESE,109,0.0,0.0,67,0.00,,,0.00,WeatherCatV1.02B3,2013-03-04 02:36:00,
2013-03-03 20:41:00,39.3,28.9,30.17,ESE,109,0.0,0.0,66,0.00,,,0.00,WeatherCatV1.02B3,2013-03-04 02:41:00,
2013-03-03 20:46:00,39.2,28.8,30.16,ESE,109,0.0,0.0,66,0.00,,,0.00,WeatherCatV1.02B3,2013-03-04 02:46:00,
2013-03-03 20:51:00,39.0,29.0,30.16,ESE,109,0.0,0.0,67,0.00,,,0.00,WeatherCatV1.02B3,2013-03-04 02:51:00,
2013-03-03 20:56:00,38.8,29.2,30.16,ESE,109,0.0,0.0,68,0.00,,,0.00,WeatherCatV1.02B3,2013-03-04 02:56:00,
2013-03-03 21:01:00,38.8,29.2,30.16,North,355,0.0,0.0,68,0.00,,,0.00,WeatherCatV1.02B3,2013-03-04 03:01:00,
2013-03-03 21:06:00,38.7,29.1,30.16,North,355,0.0,0.0,68,0.00,,,0.00,WeatherCatV1.02B3,2013-03-04 03:06:00,
2013-03-03 21:11:00,38.7,29.1,30.16,North,355,0.0,0.0,68,0.00,,,0.00,WeatherCatV1.02B3,2013-03-04 03:11:00,
2013-03-03 21:16:00,38.7,29.1,30.16,North,355,0.0,0.0,68,0.00,,,0.00,WeatherCatV1.02B3,2013-03-04 03:16:00,
2013-03-03 21:21:00,38.6,29.0,30.16,North,355,0.0,0.0,68,0.00,,,0.00,WeatherCatV1.02B3,2013-03-04 03:21:00,
2013-03-03 21:26:00,38.6,29.0,30.16,North,355,0.0,0.0,68,0.00,,,0.00,WeatherCatV1.02B3,2013-03-04 03:26:00,
2013-03-03 21:31:00,38.5,28.5,30.16,North,355,0.0,0.0,67,0.00,,,0.00,WeatherCatV1.02B3,2013-03-04 03:31:00,
2013-03-03 21:36:00,38.4,28.4,30.16,North,355,0.0,0.0,67,0.00,,,0.00,WeatherCatV1.02B3,2013-03-04 03:36:00,
2013-03-03 21:41:00,38.4,28.4,30.16,North,355,0.0,0.0,67,0.00,,,0.00,WeatherCatV1.02B3,2013-03-04 03:41:00,
2013-03-03 21:46:00,38.4,28.8,30.16,North,355,0.0,0.0,68,0.00,,,0.00,WeatherCatV1.02B3,2013-03-04 03:46:00,
2013-03-03 21:51:00,38.4,28.4,30.16,North,355,0.0,0.0,67,0.00,,,0.00,WeatherCatV1.02B3,2013-03-04 03:51:00,
2013-03-03 21:56:00,38.4,28.4,30.16,North,355,0.0,0.0,67,0.00,,,0.00,WeatherCatV1.02B3,2013-03-04 03:56:00,
2013-03-03 22:01:00,38.4,28.4,30.16,North,355,0.0,0.0,67,0.00,,,0.00,WeatherCatV1.02B3,2013-03-04 04:01:00,
2013-03-03 22:06:00,38.3,28.3,30.16,North,355,0.0,0.0,67,0.00,,,0.00,WeatherCatV1.02B3,2013-03-04 04:06:00,
2013-03-03 22:11:00,38.2,28.2,30.16,North,355,0.0,0.0,67,0.00,,,0.00,WeatherCatV1.02B3,2013-03-04 04:11:00,
2013-03-03 22:16:00,38.1,28.1,30.16,North,355,0.0,3.0,67,0.00,,,0.00,WeatherCatV1.02B3,2013-03-04 04:16:00,
2013-03-03 22:21:00,38.0,28.0,30.15,North,355,0.0,0.0,67,0.00,,,0.00,WeatherCatV1.02B3,2013-03-04 04:21:00,
2013-03-03 22:26:00,38.0,28.4,30.16,North,355,0.0,0.0,68,0.00,,,0.00,WeatherCatV1.02B3,2013-03-04 04:26:00,
2013-03-03 22:31:00,37.9,28.3,30.16,North,355,0.0,0.0,68,0.00,,,0.00,WeatherCatV1.02B3,2013-03-04 04:31:00,
2013-03-03 22:36:00,37.8,28.2,30.15,North,355,0.0,0.0,68,0.00,,,0.00,WeatherCatV1.02B3,2013-03-04 04:36:00,
2013-03-03 22:41:00,37.8,28.2,30.15,North,355,0.0,0.0,68,0.00,,,0.00,WeatherCatV1.02B3,2013-03-04 04:41:00,
2013-03-03 22:46:00,37.7,28.1,30.14,North,355,0.0,0.0,68,0.00,,,0.00,WeatherCatV1.02B3,2013-03-04 04:46:00,
2013-03-03 22:51:00,37.7,28.1,30.14,North,355,0.0,0.0,68,0.00,,,0.00,WeatherCatV1.02B3,2013-03-04 04:51:00,
2013-03-03 22:56:00,37.7,27.7,30.15,North,355,0.0,0.0,67,0.00,,,0.00,WeatherCatV1.02B3,2013-03-04 04:56:00,
2013-03-03 23:00:00,37.7,27.7,30.15,North,355,0.0,0.0,67,0.00,,,0.00,WeatherCatV1.02B3,2013-03-04 05:00:00,
2013-03-03 23:05:00,38.0,27.3,30.14,NNW,344,0.0,2.0,65,0.00,,,0.00,WeatherCatV1.02B3,2013-03-04 05:05:00,
2013-03-03 23:10:00,38.2,27.1,30.14,NNW,344,2.0,2.0,64,0.00,,,0.00,WeatherCatV1.02B3,2013-03-04 05:10:00,
2013-03-03 23:15:00,38.7,27.2,30.14,NNW,335,2.0,3.0,63,0.00,,,0.00,WeatherCatV1.02B3,2013-03-04 05:15:00,
2013-03-03 23:20:00,39.1,26.8,30.14,NW,309,0.0,2.0,61,0.00,,,0.00,WeatherCatV1.02B3,2013-03-04 05:20:00,
2013-03-03 23:25:00,39.6,27.3,30.14,NW,311,2.0,2.0,61,0.00,,,0.00,WeatherCatV1.02B3,2013-03-04 05:25:00,
2013-03-03 23:30:00,40.0,27.3,30.14,NW,311,2.0,4.0,60,0.00,,,0.00,WeatherCatV1.02B3,2013-03-04 05:30:00,
2013-03-03 23:35:00,40.3,27.1,30.14,NW,311,0.0,2.0,59,0.00,,,0.00,WeatherCatV1.02B3,2013-03-04 05:35:00,
2013-03-03 23:40:00,40.5,26.9,30.14,NW,311,0.0,1.0,58,0.00,,,0.00,WeatherCatV1.02B3,2013-03-04 05:40:00,
2013-03-03 23:45:00,40.7,27.1,30.14,NW,311,0.0,1.0,58,0.00,,,0.00,WeatherCatV1.02B3,2013-03-04 05:45:00,
2013-03-03 23:50:00,40.9,27.3,30.14,NW,311,0.0,1.0,58,0.00,,,0.00,WeatherCatV1.02B3,2013-03-04 05:50:00,
2013-03-03 23:55:00,40.9,27.3,30.14,NW,311,0.0,0.0,58,0.00,,,0.00,WeatherCatV1.02B3,2013-03-04 05:55:00,